Charlottetown, Prince Edward Island

8:33 AM AST on November 18, 2017 (GMT -0400)
Charlottetown

Weather History for CYYG - May, 2014

Change the Weather History Date:

Tuesday, May 27, 2014

  Actual Average Record
Temperature  
Mean Temperature 44 °F -  
Max Temperature 48 °F 66 °F 82 °F (2015)
Min Temperature 39 °F 48 °F 35 °F (1997)
Degree Days  
Heating Degree Days 22    
Moisture  
Dew Point 42 °F    
Average Humidity 94    
Maximum Humidity 100    
Minimum Humidity 82    
Precipitation  
Precipitation 0.02 in 0.12 in - ()
Sea Level Pressure  
Sea Level Pressure 29.90 in    
Wind  
Wind Speed 8 mph ()    
Max Wind Speed 20 mph    
Max Gust Speed 24 mph    
Visibility 7.9 miles    
Events Rain    
Averages and records for this station are not official NWS values.
T = Trace of Precipitation, MM = Missing Value Source: Averaged Metar Reports

Daily Weather History Graph

Daily Weather History Graph

Search for Another Location

Airport or City:

Trip Planner

Search our weather history database for the weather conditions in past years. The results will help you decide how hot, cold, wet, or windy it might be!

Date:

Astronomy

May. 27, 2014 Rise Set
Actual Time 5:27 AM ADT 8:52 PM ADT
Civil Twilight 4:50 AM ADT 9:29 PM ADT
Nautical Twilight 4:01 AM ADT 10:18 PM ADT
Astronomical Twilight 2:59 AM ADT 11:21 PM ADT
Moon 4:53 AM ADT (5/27) 7:45 PM ADT (5/27)
Length of Visible Light 16h 38m
Length of Day
15h 24m
Waning Crescent, 1% of the Moon is Illuminated
May 27
Waning Crescent
May 28
New
Jun 5
First Quarter
Jun 13
Full
Jun 19
Last Quarter

Hourly Weather History & Observations

Time (ADT) Temp. Windchill Dew Point Humidity Pressure Visibility Wind Dir Wind Speed Gust Speed Precip Events Conditions
12:00 AM 44.6 °F 42.2 °F 44.6 °F 100% 29.78 in 1.5 mi East 4.6 mph - N/A   Light Drizzle
12:43 AM 44.6 °F 42.2 °F 44.6 °F 100% 29.77 in 1.0 mi East 4.6 mph - N/A   Light Drizzle
1:00 AM 44.6 °F 42.2 °F 44.6 °F 100% 29.77 in 1.0 mi ESE 4.6 mph - N/A   Light Drizzle
1:33 AM 44.6 °F 43.1 °F 44.6 °F 100% 29.77 in 0.6 mi ESE 3.5 mph - N/A   Light Drizzle
2:00 AM 44.6 °F 42.2 °F 44.6 °F 100% 29.77 in 0.8 mi East 4.6 mph - N/A   Light Drizzle
2:49 AM 44.6 °F 43.1 °F 44.6 °F 100% 29.77 in 2.0 mi NE 3.5 mph - N/A Rain Light Rain
3:00 AM 44 °F - 44 °F 98% 29.77 in 1 mi NE 3.5 mph - - Rain Light Rain
3:00 AM 44.6 °F 42.2 °F 44.6 °F 100% 29.77 in 1.5 mi NE 4.6 mph - N/A Rain Light Rain
4:00 AM 42.8 °F 40.1 °F 42.8 °F 100% 29.78 in 2.0 mi NNE 4.6 mph - N/A Rain Light Rain
4:14 AM 42.8 °F 39.3 °F 42.8 °F 100% 29.78 in 1.5 mi NNE 5.8 mph - N/A   Light Drizzle
5:00 AM 42.8 °F 39.3 °F 42.8 °F 100% 29.79 in 1.5 mi NE 5.8 mph - N/A   Light Drizzle
5:18 AM 42.8 °F 38.6 °F 42.8 °F 100% 29.79 in 2.0 mi NNE 6.9 mph - N/A   Light Drizzle
6:00 AM 42.8 °F 38.6 °F 42.8 °F 100% 29.81 in 2.0 mi NNE 6.9 mph - N/A   Drizzle
6:16 AM 42.8 °F 36.2 °F 42.8 °F 100% 29.81 in 2.0 mi NNE 12.7 mph - N/A   Drizzle
6:36 AM 42.8 °F 35.8 °F 42.8 °F 100% 29.82 in 1.5 mi NNE 13.8 mph - N/A   Light Drizzle
7:00 AM 42.8 °F 36.6 °F 42.8 °F 100% 29.83 in 4.0 mi NE 11.5 mph - N/A   Overcast
8:00 AM 42.8 °F 37.5 °F 42.8 °F 100% 29.86 in 10.0 mi NE 9.2 mph - N/A   Light Drizzle
9:00 AM 44 °F - 43 °F 95% 29.90 in 12 mi NNE 10.4 mph - - Rain Light Drizzle
9:00 AM 44.6 °F 39.2 °F 42.8 °F 93% 29.90 in 12.0 mi NNE 10.4 mph - N/A   Light Drizzle
10:00 AM 44.6 °F 39.2 °F 42.8 °F 93% 29.91 in 12.0 mi North 10.4 mph - N/A   Light Drizzle
10:28 AM 46.4 °F 41.1 °F 44.6 °F 93% 29.93 in 15.0 mi North 11.5 mph - N/A   Overcast
11:00 AM 46.4 °F 41.1 °F 44.6 °F 93% 29.94 in 15.0 mi North 11.5 mph - N/A   Overcast
11:15 AM 46.4 °F 40.4 °F 44.6 °F 93% 29.94 in 10.0 mi North 13.8 mph - N/A   Light Drizzle
12:00 PM 46.4 °F 39.2 °F 44.6 °F 93% 29.96 in 3.0 mi NNE 18.4 mph - N/A   Light Drizzle
12:43 PM 46.4 °F 39.8 °F 42.8 °F 87% 29.97 in 15.0 mi NE 16.1 mph - N/A   Overcast
1:00 PM 48.2 °F - 42.8 °F 82% 29.97 in 15.0 mi NE 17.3 mph - N/A   Overcast
2:00 PM 46.4 °F 39.5 °F 42.8 °F 87% 29.98 in 15.0 mi NNE 17.3 mph 24.2 mph N/A   Overcast
2:43 PM 44.6 °F 37.2 °F 42.8 °F 93% 30.00 in 12.0 mi NNE 17.3 mph - N/A   Overcast
3:00 PM 46 °F - 42 °F 82% 30.00 in 12 mi NNE 17.3 mph - -   Partly Cloudy
3:00 PM 46.4 °F 40.1 °F 42.8 °F 87% 30.00 in 12.0 mi North 15.0 mph 23.0 mph N/A   Overcast
4:00 PM 44.6 °F 36.6 °F 41.0 °F 87% 30.00 in 12.0 mi North 19.6 mph - N/A   Overcast
7:00 PM 39.2 °F 31.6 °F 35.6 °F 87% 30.06 in 15.0 mi North 12.7 mph - N/A   Overcast
8:00 PM 39.2 °F 32.5 °F 35.6 °F 87% 30.07 in 15.0 mi North 10.4 mph 17.3 mph N/A   Overcast
9:00 PM 39 °F - 36 °F 83% 30.07 in 15 mi NNE 13.8 mph - -   Overcast
9:00 PM 39.2 °F 31.2 °F 35.6 °F 87% 30.07 in 15.0 mi NNE 13.8 mph - N/A   Overcast
10:00 PM 39.2 °F 33.6 °F 35.6 °F 87% 30.08 in 12.0 mi NNE 8.1 mph - N/A   Overcast
11:00 PM 39.2 °F 33.0 °F 35.6 °F 87% 30.09 in 10.0 mi NNE 9.2 mph - N/A   Overcast
11:08 PM 39.2 °F 33.6 °F 35.6 °F 87% 30.09 in 10.0 mi NNE 8.1 mph - N/A   Overcast